sat.trackr.live / text

‹ back to catalog

STARLINK-3292

NORAD 50174 · 2021-125U

PAYLOAD ACTIVE UNKNOWN

§ Identity

Operator
Country
US
Launch date
2021-12-18
Launch site
AFWTR
Launch vehicle
Mass (kg)
RCS (m²)

Purposes: comms

External: N2YO · Heavens-Above · Gunter

§ Orbital elements

Epoch: 2026-05-25T00:52:50.873088Z

Period
95.44 min
Inclination
53.2158°
Eccentricity
0.0001199
Mean motion
15.08837384 rev/d
Perigee alt
538.9 km
Apogee alt
540.6 km
Semi-major
6,917.9 km
B*
6.2046e-5
RAAN
261.9949°
Arg perigee
88.8016°
Mean anomaly
271.3113°
Rev number
24,823

§ Raw data

STARLINK-32921 50174U 21125U   26145.03669992  .00000700  00000+0  62046-4 0  99982 50174  53.2158 261.9949 0001199  88.8016 271.3113 15.08837384248238

JSON: /api/v1/satellites/50174 · /tle

For live sub-satellite position, see the globe view (requires WebGL).

§ Visibility from observer

Set your observer location to see the next 7 days of passes ≥ 10°. The values pass through the URL so the page stays shareable.

No JS? Fill the form by hand. The geolocation button needs JavaScript.